User: anonymous
Location: Prairie State College
(41.5244°N, 87.6382°W)
Time: 19:07:58
(UTC-05:00)
Language:

Cosmos 1140 Rocket - Orbit

View from above orbital plane
View from above orbital plane
View from above satellite
View from above satellite

Ground track
Ground track

The orbit data is extracted from the following two-line orbital elements,

1 11574U 79089B   14110.52598414  .00000334  00000-0  11381-3 0  7148
2 11574 074.0707 187.9592 0015873 021.9265 078.5168 14.40196721811049
Epoch (UTC): 20 April 2014 12:37:25
Eccentricity: 0.0015873
inclination: 74.0707°
perigee height: 746 km
apogee height: 769 km
right ascension of ascending node: 187.9592°
argument of perigee: 21.9265°
revolutions per day: 14.40196721
mean anomaly at epoch: 78.5168°
orbit number at epoch: 81104

The dashed part of the orbit path shows where the satellite is in the earth's shadow,  

DLR